^^
B2 Weather Station Historical Data
Daily Summary for April 9, 2019 Units:  English    Metric   Both
Daily Weekly Monthly Yearly Custom
  High: Low: Average:
Temperature: 67.2 °F 42.8 °F 58.6 °F
Dew Point: 46.9 °F 31.4 °F 39.5 °F
Humidity: 77% 27% 52%
Wind Speed: 23.0mph 0.0mph 7.3mph
Wind Gust: 16.8mph - -
Wind- - WNW
Pressure: 29.93 in 29.77 in -
Precipitation: 0.00 in    
Historical Graphs
 
 
Tabular Data for April 9, 2019
Time Temperature Dew Point Pressure Wind Wind Speed Wind Gust Humidity Rainfall Rate (Hourly) solar
00:04 60.3 °F 44.5 °F 29.77 in SW 10.4 mph 6.3 mph 56% 0.00 in 0.00 W/m2
00:09 60.7 °F 44.4 °F 29.77 in SW 8.1 mph 5.7 mph 55% 0.00 in 0.00 W/m2
00:14 60.8 °F 44.5 °F 29.77 in West 6.9 mph 4.5 mph 55% 0.00 in 0.00 W/m2
00:19 60.8 °F 44.5 °F 29.78 in West 8.0 mph 4.9 mph 55% 0.00 in 0.00 W/m2
00:24 60.6 °F 44.8 °F 29.78 in West 11.5 mph 7.6 mph 56% 0.00 in 0.00 W/m2
00:29 60.2 °F 44.9 °F 29.78 in WSW 10.4 mph 4.1 mph 57% 0.00 in 0.00 W/m2
00:34 59.8 °F 45.0 °F 29.78 in WNW 12.7 mph 5.5 mph 58% 0.00 in 0.00 W/m2
00:39 59.6 °F 45.2 °F 29.78 in West 6.9 mph 5.6 mph 59% 0.00 in 0.00 W/m2
00:44 59.6 °F 45.2 °F 29.78 in West 9.2 mph 2.6 mph 59% 0.00 in 0.00 W/m2
00:49 59.6 °F 45.2 °F 29.78 in WNW 10.4 mph 5.0 mph 59% 0.00 in 0.00 W/m2
00:54 59.5 °F 45.6 °F 29.78 in West 8.1 mph 5.8 mph 60% 0.00 in 0.00 W/m2
00:59 59.3 °F 45.4 °F 29.78 in West 9.2 mph 5.1 mph 60% 0.00 in 0.00 W/m2
01:04 59.1 °F 45.7 °F 29.79 in West 6.9 mph 2.9 mph 61% 0.00 in 0.00 W/m2
01:09 59.0 °F 46.0 °F 29.79 in West 8.1 mph 4.3 mph 62% 0.00 in 0.00 W/m2
01:14 59.2 °F 45.8 °F 29.79 in NNW 10.4 mph 5.8 mph 61% 0.00 in 0.00 W/m2
01:19 59.1 °F 46.1 °F 29.79 in NW 9.2 mph 4.6 mph 62% 0.00 in 0.00 W/m2
01:24 58.8 °F 46.2 °F 29.79 in NW 8.1 mph 5.5 mph 63% 0.00 in 0.00 W/m2
01:29 58.7 °F 46.1 °F 29.79 in NW 6.9 mph 5.7 mph 63% 0.00 in 0.00 W/m2
01:34 58.7 °F 46.1 °F 29.79 in WNW 9.2 mph 4.4 mph 63% 0.00 in 0.00 W/m2
01:39 58.7 °F 46.1 °F 29.79 in NW 6.0 mph 4.2 mph 63% 0.00 in 0.00 W/m2
01:44 58.5 °F 46.4 °F 29.79 in WNW 5.8 mph 2.3 mph 64% 0.00 in 0.00 W/m2
01:49 58.1 °F 46.4 °F 29.79 in NW 7.0 mph 4.6 mph 65% 0.00 in 0.00 W/m2
01:54 57.9 °F 46.2 °F 29.79 in West 6.9 mph 3.5 mph 65% 0.00 in 0.00 W/m2
01:59 57.6 °F 46.3 °F 29.80 in NW 6.9 mph 4.3 mph 66% 0.00 in 0.00 W/m2
02:04 57.4 °F 46.1 °F 29.80 in NW 6.9 mph 3.5 mph 66% 0.00 in 0.00 W/m2
02:09 57.1 °F 46.2 °F 29.80 in WNW 5.8 mph 5.1 mph 67% 0.00 in 0.00 W/m2
02:14 57.0 °F 46.1 °F 29.80 in NW 10.4 mph 6.6 mph 67% 0.00 in 0.00 W/m2
02:19 56.8 °F 46.0 °F 29.80 in NW 10.4 mph 5.6 mph 67% 0.00 in 0.00 W/m2
02:24 56.5 °F 46.1 °F 29.81 in WNW 11.5 mph 6.2 mph 68% 0.00 in 0.00 W/m2
02:29 56.3 °F 45.9 °F 29.81 in WNW 10.4 mph 5.9 mph 68% 0.00 in 0.00 W/m2
02:34 56.4 °F 45.6 °F 29.81 in NNW 9.2 mph 4.6 mph 67% 0.00 in 0.00 W/m2
02:39 56.3 °F 45.5 °F 29.81 in NW 8.1 mph 6.7 mph 67% 0.00 in 0.00 W/m2
02:44 56.1 °F 45.7 °F 29.81 in WNW 9.2 mph 7.1 mph 68% 0.00 in 0.00 W/m2
02:49 55.9 °F 45.5 °F 29.81 in NW 11.5 mph 6.4 mph 68% 0.00 in 0.00 W/m2
02:54 55.5 °F 45.5 °F 29.81 in NNW 8.1 mph 5.3 mph 69% 0.00 in 0.00 W/m2
02:59 55.3 °F 44.9 °F 29.82 in NW 11.5 mph 5.0 mph 68% 0.00 in 0.00 W/m2
03:04 55.0 °F 44.6 °F 29.82 in NNW 8.1 mph 3.3 mph 68% 0.00 in 0.00 W/m2
03:09 54.8 °F 44.4 °F 29.82 in NNW 10.4 mph 5.3 mph 68% 0.00 in 0.00 W/m2
03:14 54.5 °F 44.2 °F 29.82 in NW 5.8 mph 5.1 mph 68% 0.00 in 0.00 W/m2
03:19 54.3 °F 43.6 °F 29.82 in NNW 8.1 mph 4.4 mph 67% 0.00 in 0.00 W/m2
03:24 54.1 °F 43.4 °F 29.82 in NNW 8.1 mph 5.5 mph 67% 0.00 in 0.00 W/m2
03:29 53.7 °F 43.0 °F 29.82 in NNW 6.9 mph 3.8 mph 67% 0.00 in 0.00 W/m2
03:34 53.3 °F 43.0 °F 29.83 in NNW 8.1 mph 6.4 mph 68% 0.00 in 0.00 W/m2
03:40 53.0 °F 42.7 °F 29.83 in NNW 4.6 mph 2.3 mph 68% 0.00 in 0.00 W/m2
03:44 52.7 °F 42.4 °F 29.83 in NNW 4.6 mph 3.9 mph 68% 0.00 in 0.00 W/m2
03:49 52.4 °F 42.1 °F 29.83 in NNW 3.5 mph 2.9 mph 68% 0.00 in 0.00 W/m2
03:54 52.2 °F 42.3 °F 29.83 in NNW 4.6 mph 3.7 mph 69% 0.00 in 0.00 W/m2
03:59 52.1 °F 42.2 °F 29.83 in NNW 4.0 mph 2.4 mph 69% 0.00 in 0.00 W/m2
04:04 52.1 °F 41.9 °F 29.84 in NNW 4.6 mph 2.5 mph 68% 0.00 in 0.00 W/m2
04:09 52.1 °F 41.9 °F 29.84 in NW 5.8 mph 3.7 mph 68% 0.00 in 0.00 W/m2
04:14 52.1 °F 41.9 °F 29.84 in NW 4.6 mph 3.6 mph 68% 0.00 in 0.00 W/m2
04:19 51.9 °F 41.7 °F 29.84 in NNW 3.5 mph 1.1 mph 68% 0.00 in 0.00 W/m2
04:24 51.7 °F 41.5 °F 29.84 in NNW 2.3 mph 0.3 mph 68% 0.00 in 0.00 W/m2
04:29 51.4 °F 41.6 °F 29.84 in NNW 2.3 mph 1.1 mph 69% 0.00 in 0.00 W/m2
04:34 51.2 °F 41.4 °F 29.84 in NW 2.3 mph 1.6 mph 69% 0.00 in 0.00 W/m2
04:39 50.9 °F 41.5 °F 29.84 in NNW 3.5 mph 1.2 mph 70% 0.00 in 0.00 W/m2
04:44 50.7 °F 41.6 °F 29.84 in NNW 3.5 mph 0.9 mph 71% 0.00 in 0.00 W/m2
04:49 50.5 °F 41.4 °F 29.84 in NNW 3.5 mph 1.8 mph 71% 0.00 in 0.00 W/m2
04:54 50.3 °F 41.3 °F 29.85 in NNW 1.2 mph 0.5 mph 71% 0.00 in 0.00 W/m2
04:59 50.2 °F 41.5 °F 29.85 in NNW 2.3 mph 0.6 mph 72% 0.00 in 0.00 W/m2
05:04 49.9 °F 41.2 °F 29.85 in NW 3.0 mph 0.5 mph 72% 0.00 in 0.00 W/m2
05:09 49.8 °F 41.1 °F 29.85 in NW 1.2 mph 0.2 mph 72% 0.00 in 0.00 W/m2
05:14 49.7 °F 41.0 °F 29.85 in NNW 2.3 mph 1.0 mph 72% 0.00 in 0.00 W/m2
05:19 49.5 °F 40.8 °F 29.85 in NNW 3.5 mph 1.2 mph 72% 0.00 in 0.00 W/m2
05:24 49.3 °F 40.7 °F 29.84 in NNW 2.3 mph 0.8 mph 72% 0.00 in 0.00 W/m2
05:29 49.2 °F 40.6 °F 29.85 in NNW 3.5 mph 3.0 mph 72% 0.00 in 0.00 W/m2
05:34 48.8 °F 40.5 °F 29.84 in NNW 3.5 mph 1.7 mph 73% 0.00 in 0.00 W/m2
05:39 48.5 °F 40.6 °F 29.84 in NNW 4.0 mph 2.4 mph 74% 0.00 in 0.00 W/m2
05:44 48.4 °F 40.5 °F 29.85 in NNW 3.5 mph 2.1 mph 74% 0.00 in 0.00 W/m2
05:49 48.3 °F 40.4 °F 29.84 in NNW 3.5 mph 1.6 mph 74% 0.00 in 0.00 W/m2
05:55 48.3 °F 40.4 °F 29.85 in NNW 2.3 mph 0.7 mph 74% 0.00 in 0.00 W/m2
05:59 48.2 °F 40.3 °F 29.85 in NNW 1.2 mph 0.3 mph 74% 0.00 in 0.00 W/m2
06:04 48.0 °F 40.1 °F 29.85 in Calm     74% 0.00 in 0.00 W/m2
06:09 47.7 °F 39.8 °F 29.85 in Calm     74% 0.00 in 0.00 W/m2
06:14 47.6 °F 40.1 °F 29.85 in Calm     75% 0.00 in 0.00 W/m2
06:19 47.4 °F 39.9 °F 29.86 in Calm     75% 0.00 in 0.00 W/m2
06:24 47.2 °F 39.7 °F 29.86 in Calm     75% 0.00 in 5.00 W/m2
06:29 47.0 °F 39.8 °F 29.85 in Calm     76% 0.00 in 7.00 W/m2
06:34 47.0 °F 39.8 °F 29.86 in NNW 2.3 mph   76% 0.00 in 9.00 W/m2
06:39 47.0 °F 40.2 °F 29.86 in NNW 1.2 mph 0.2 mph 77% 0.00 in 12.00 W/m2
06:44 47.2 °F 40.0 °F 29.86 in NNW 1.2 mph 0.3 mph 76% 0.00 in 14.00 W/m2
06:49 47.2 °F 40.4 °F 29.86 in Calm     77% 0.00 in 19.00 W/m2
06:54 47.5 °F 40.6 °F 29.86 in Calm     77% 0.00 in 30.00 W/m2
06:59 47.9 °F 41.0 °F 29.86 in Calm     77% 0.00 in 44.00 W/m2
07:04 48.3 °F 41.1 °F 29.87 in Calm     76% 0.00 in 56.00 W/m2
07:09 48.7 °F 41.5 °F 29.87 in Calm     76% 0.00 in 67.00 W/m2
07:14 49.1 °F 41.5 °F 29.87 in Calm     75% 0.00 in 79.00 W/m2
07:19 49.5 °F 41.9 °F 29.87 in Calm     75% 0.00 in 93.00 W/m2
07:24 50.0 °F 42.0 °F 29.86 in Calm     74% 0.00 in 107.00 W/m2
07:29 50.5 °F 42.5 °F 29.87 in Calm     74% 0.00 in 127.00 W/m2
07:34 51.0 °F 42.6 °F 29.87 in Calm   0.7 mph 73% 0.00 in 146.00 W/m2
07:39 51.5 °F 42.8 °F 29.87 in Calm     72% 0.00 in 163.00 W/m2
07:44 52.0 °F 42.9 °F 29.88 in NW 1.2 mph   71% 0.00 in 179.00 W/m2
07:49 52.6 °F 43.5 °F 29.88 in Calm     71% 0.00 in 179.00 W/m2
07:54 53.1 °F 43.6 °F 29.88 in Calm     70% 0.00 in 190.00 W/m2
07:59 53.5 °F 43.6 °F 29.88 in NW 5.8 mph 0.9 mph 69% 0.00 in 195.00 W/m2
08:04 53.8 °F 43.9 °F 29.88 in Calm     69% 0.00 in 211.00 W/m2
08:09 54.0 °F 44.1 °F 29.88 in NW 3.5 mph 0.1 mph 69% 0.00 in 236.00 W/m2
08:14 54.3 °F 44.0 °F 29.88 in Calm     68% 0.00 in 246.00 W/m2
08:19 54.4 °F 44.1 °F 29.88 in Calm   0.3 mph 68% 0.00 in 283.00 W/m2
08:24 54.6 °F 44.2 °F 29.88 in NW 1.2 mph 0.2 mph 68% 0.00 in 292.00 W/m2
08:29 55.0 °F 45.0 °F 29.88 in Calm     69% 0.00 in 304.00 W/m2
08:34 55.6 °F 44.8 °F 29.88 in North 3.5 mph 0.4 mph 67% 0.00 in 309.00 W/m2
08:39 55.9 °F 45.1 °F 29.88 in North 2.3 mph   67% 0.00 in 338.00 W/m2
08:44 56.3 °F 45.1 °F 29.88 in NW 2.3 mph   66% 0.00 in 360.00 W/m2
08:49 56.4 °F 44.8 °F 29.88 in North 1.0 mph   65% 0.00 in 385.00 W/m2
08:54 56.7 °F 45.1 °F 29.89 in Calm   0.5 mph 65% 0.00 in 408.00 W/m2
08:59 57.0 °F 44.9 °F 29.89 in WNW 1.2 mph 0.5 mph 64% 0.00 in 436.00 W/m2
09:04 57.5 °F 45.4 °F 29.89 in NNW 3.0 mph 0.9 mph 64% 0.00 in 466.00 W/m2
09:09 57.8 °F 45.3 °F 29.88 in NW 3.5 mph   63% 0.00 in 496.00 W/m2
09:14 58.0 °F 44.6 °F 29.89 in NW 5.8 mph 1.6 mph 61% 0.00 in 520.00 W/m2
09:19 58.1 °F 46.0 °F 29.88 in North 3.0 mph 0.1 mph 64% 0.00 in 541.00 W/m2
09:24 58.5 °F 45.5 °F 29.89 in NW 3.5 mph 2.1 mph 62% 0.00 in 552.00 W/m2
09:29 58.6 °F 45.2 °F 29.89 in Calm   0.4 mph 61% 0.00 in 568.00 W/m2
09:34 58.8 °F 44.9 °F 29.89 in NW 6.9 mph 1.4 mph 60% 0.00 in 580.00 W/m2
09:39 58.9 °F 45.5 °F 29.89 in WNW 3.5 mph 0.6 mph 61% 0.00 in 596.00 W/m2
09:44 59.2 °F 45.8 °F 29.89 in NW 3.5 mph 2.0 mph 61% 0.00 in 610.00 W/m2
09:49 59.4 °F 46.4 °F 29.89 in Calm   1.5 mph 62% 0.00 in 626.00 W/m2
09:54 59.6 °F 45.7 °F 29.89 in WNW 9.0 mph 4.0 mph 60% 0.00 in 638.00 W/m2
09:59 59.8 °F 45.4 °F 29.89 in NNW 3.0 mph 0.8 mph 59% 0.00 in 650.00 W/m2
10:04 60.0 °F 46.1 °F 29.89 in NW 4.0 mph 0.9 mph 60% 0.00 in 663.00 W/m2
10:09 60.2 °F 46.3 °F 29.89 in NW 9.2 mph 3.0 mph 60% 0.00 in 677.00 W/m2
10:14 60.4 °F 46.9 °F 29.89 in NW 7.0 mph 3.9 mph 61% 0.00 in 687.00 W/m2
10:19 60.6 °F 45.7 °F 29.89 in NNW 8.1 mph 2.3 mph 58% 0.00 in 707.00 W/m2
10:24 60.6 °F 46.6 °F 29.89 in WNW 7.0 mph 2.6 mph 60% 0.00 in 719.00 W/m2
10:29 60.8 °F 45.9 °F 29.89 in NNW 8.1 mph 4.5 mph 58% 0.00 in 724.00 W/m2
10:34 60.8 °F 45.5 °F 29.89 in WNW 6.9 mph 3.9 mph 57% 0.00 in 738.00 W/m2
10:39 60.7 °F 44.4 °F 29.89 in WNW 9.2 mph 6.6 mph 55% 0.00 in 754.00 W/m2
10:44 61.0 °F 44.7 °F 29.89 in NW 8.0 mph 5.4 mph 55% 0.00 in 765.00 W/m2
10:49 61.3 °F 45.5 °F 29.89 in WNW 10.0 mph 6.8 mph 56% 0.00 in 772.00 W/m2
10:54 61.1 °F 44.3 °F 29.89 in NW 8.1 mph 4.6 mph 54% 0.00 in 780.00 W/m2
10:59 61.4 °F 45.1 °F 29.89 in WSW 6.9 mph 4.8 mph 55% 0.00 in 786.00 W/m2
11:04 61.9 °F 46.0 °F 29.89 in West 4.6 mph 2.8 mph 56% 0.00 in 795.00 W/m2
11:09 62.0 °F 42.6 °F 29.88 in WNW 11.5 mph 5.5 mph 49% 0.00 in 809.00 W/m2
11:14 62.2 °F 42.8 °F 29.89 in WNW 9.2 mph 4.9 mph 49% 0.00 in 809.00 W/m2
11:19 62.4 °F 41.3 °F 29.89 in NW 11.5 mph 7.7 mph 46% 0.00 in 828.00 W/m2
11:24 62.6 °F 42.1 °F 29.89 in NW 11.0 mph 7.6 mph 47% 0.00 in 831.00 W/m2
11:29 62.8 °F 42.8 °F 29.89 in NW 9.0 mph 5.3 mph 48% 0.00 in 831.00 W/m2
11:34 62.7 °F 42.2 °F 29.89 in NW 11.5 mph 6.7 mph 47% 0.00 in 838.00 W/m2
11:39 62.8 °F 42.3 °F 29.89 in North 8.1 mph 6.5 mph 47% 0.00 in 846.00 W/m2
11:44 63.2 °F 41.5 °F 29.88 in West 6.9 mph 4.0 mph 45% 0.00 in 854.00 W/m2
11:49 63.4 °F 39.9 °F 29.89 in West 10.4 mph 9.0 mph 42% 0.00 in 863.00 W/m2
11:54 63.6 °F 40.7 °F 29.88 in NNW 15.0 mph 9.7 mph 43% 0.00 in 861.00 W/m2
11:59 63.8 °F 40.3 °F 29.88 in NNW 13.8 mph 8.8 mph 42% 0.00 in 824.00 W/m2
12:04 63.6 °F 39.5 °F 29.88 in WNW 13.0 mph 8.5 mph 41% 0.00 in 789.00 W/m2
12:09 63.6 °F 39.5 °F 29.88 in WNW 8.1 mph 4.5 mph 41% 0.00 in 737.00 W/m2
12:14 63.7 °F 40.2 °F 29.88 in NW 11.5 mph 7.4 mph 42% 0.00 in 708.00 W/m2
12:19 64.0 °F 42.2 °F 29.88 in North 10.4 mph 6.1 mph 45% 0.00 in 691.00 W/m2
12:24 64.1 °F 39.9 °F 29.87 in NW 11.5 mph 6.4 mph 41% 0.00 in 701.00 W/m2
12:29 64.0 °F 39.2 °F 29.87 in WNW 11.5 mph 6.5 mph 40% 0.00 in 737.00 W/m2
12:34 64.1 °F 39.9 °F 29.87 in WNW 12.0 mph 8.1 mph 41% 0.00 in 798.00 W/m2
12:39 64.1 °F 39.9 °F 29.87 in NW 12.0 mph 7.9 mph 41% 0.00 in 847.00 W/m2
12:45 64.1 °F 39.3 °F 29.87 in NW 6.9 mph 4.8 mph 40% 0.00 in 881.00 W/m2
12:49 64.2 °F 40.6 °F 29.87 in NW 12.7 mph 6.0 mph 42% 0.00 in 886.00 W/m2
12:54 64.5 °F 39.6 °F 29.86 in West 12.7 mph 10.3 mph 40% 0.00 in 884.00 W/m2
12:59 64.8 °F 39.9 °F 29.87 in NNW 10.0 mph 7.8 mph 40% 0.00 in 884.00 W/m2
13:04 64.7 °F 40.4 °F 29.87 in West 17.3 mph 12.1 mph 41% 0.00 in 889.00 W/m2
13:09 64.5 °F 39.6 °F 29.86 in NW 13.8 mph 5.5 mph 40% 0.00 in 891.00 W/m2
13:14 64.8 °F 39.2 °F 29.86 in NW 10.0 mph 7.7 mph 39% 0.00 in 888.00 W/m2
13:19 64.9 °F 41.9 °F 29.86 in NW 10.0 mph 4.9 mph 43% 0.00 in 884.00 W/m2
13:24 64.8 °F 39.2 °F 29.86 in NNW 11.0 mph 8.4 mph 39% 0.00 in 882.00 W/m2
13:29 65.0 °F 40.1 °F 29.86 in WNW 13.0 mph 8.0 mph 40% 0.00 in 875.00 W/m2
13:34 65.1 °F 40.8 °F 29.86 in NW 11.5 mph 6.6 mph 41% 0.00 in 879.00 W/m2
13:39 65.0 °F 40.7 °F 29.86 in NW 9.2 mph 5.1 mph 41% 0.00 in 870.00 W/m2
13:44 64.9 °F 40.0 °F 29.85 in NW 10.0 mph 10.2 mph 40% 0.00 in 874.00 W/m2
13:49 65.3 °F 38.3 °F 29.85 in West 9.2 mph 5.3 mph 37% 0.00 in 868.00 W/m2
13:54 65.6 °F 40.0 °F 29.86 in WSW 12.7 mph 5.8 mph 39% 0.00 in 860.00 W/m2
13:59 65.4 °F 39.1 °F 29.86 in NW 7.0 mph 5.2 mph 38% 0.00 in 856.00 W/m2
14:04 65.4 °F 39.8 °F 29.85 in WSW 8.1 mph 4.1 mph 39% 0.00 in 854.00 W/m2
14:09 65.6 °F 39.3 °F 29.86 in NNW 11.5 mph 6.1 mph 38% 0.00 in 847.00 W/m2
14:14 65.8 °F 40.1 °F 29.86 in NW 7.0 mph 5.3 mph 39% 0.00 in 835.00 W/m2
14:19 66.0 °F 39.0 °F 29.85 in WNW 9.2 mph 6.1 mph 37% 0.00 in 831.00 W/m2
14:24 66.1 °F 38.4 °F 29.85 in NNW 11.5 mph 8.0 mph 36% 0.00 in 824.00 W/m2
14:29 66.2 °F 37.0 °F 29.85 in SW 12.7 mph 7.8 mph 34% 0.00 in 819.00 W/m2
14:34 66.3 °F 37.1 °F 29.85 in NW 12.7 mph 7.4 mph 34% 0.00 in 814.00 W/m2
14:39 66.1 °F 37.6 °F 29.85 in NNW 11.5 mph 7.1 mph 35% 0.00 in 805.00 W/m2
14:44 66.1 °F 36.9 °F 29.84 in West 12.7 mph 7.3 mph 34% 0.00 in 796.00 W/m2
14:49 66.3 °F 36.3 °F 29.84 in WNW 6.9 mph 5.2 mph 33% 0.00 in 793.00 W/m2
14:54 66.3 °F 37.8 °F 29.84 in NW 11.5 mph 5.2 mph 35% 0.00 in 745.00 W/m2
14:59 66.6 °F 37.3 °F 29.84 in SW 13.0 mph 8.8 mph 34% 0.00 in 724.00 W/m2
15:04 66.3 °F 37.1 °F 29.84 in WSW 11.5 mph 3.6 mph 34% 0.00 in 684.00 W/m2
15:09 66.5 °F 36.5 °F 29.84 in West 11.0 mph 8.0 mph 33% 0.00 in 796.00 W/m2
15:14 66.4 °F 34.8 °F 29.84 in NW 15.0 mph 7.6 mph 31% 0.00 in 754.00 W/m2
15:19 66.3 °F 35.5 °F 29.84 in West 10.4 mph 7.8 mph 32% 0.00 in 735.00 W/m2
15:24 66.5 °F 38.0 °F 29.84 in NNW 9.2 mph 5.1 mph 35% 0.00 in 712.00 W/m2
15:29 66.7 °F 35.1 °F 29.83 in WSW 12.0 mph 7.4 mph 31% 0.00 in 701.00 W/m2
15:34 66.7 °F 36.7 °F 29.83 in NW 12.0 mph 5.8 mph 33% 0.00 in 698.00 W/m2
15:39 66.8 °F 36.0 °F 29.83 in West 9.0 mph 5.4 mph 32% 0.00 in 686.00 W/m2
15:44 67.2 °F 36.3 °F 29.83 in NNW 10.4 mph 3.6 mph 32% 0.00 in 668.00 W/m2
15:49 66.9 °F 32.7 °F 29.83 in NW 15.0 mph 10.2 mph 28% 0.00 in 656.00 W/m2
15:54 66.8 °F 32.6 °F 29.83 in NW 15.0 mph 8.1 mph 28% 0.00 in 638.00 W/m2
15:59 66.6 °F 34.2 °F 29.83 in WSW 11.5 mph 6.3 mph 30% 0.00 in 624.00 W/m2
16:04 66.6 °F 33.3 °F 29.83 in WNW 7.0 mph 7.9 mph 29% 0.00 in 608.00 W/m2
16:09 66.6 °F 31.5 °F 29.83 in WNW 11.5 mph 7.7 mph 27% 0.00 in 594.00 W/m2
16:14 66.7 °F 31.6 °F 29.83 in West 11.5 mph 7.3 mph 27% 0.00 in 582.00 W/m2
16:19 66.8 °F 32.6 °F 29.83 in NNW 15.0 mph 6.8 mph 28% 0.00 in 566.00 W/m2
16:24 66.7 °F 31.6 °F 29.82 in WNW 16.1 mph 10.6 mph 27% 0.00 in 550.00 W/m2
16:29 66.8 °F 31.7 °F 29.83 in WNW 10.4 mph 5.6 mph 27% 0.00 in 534.00 W/m2
16:34 66.9 °F 32.7 °F 29.83 in WSW 12.7 mph 6.8 mph 28% 0.00 in 519.00 W/m2
16:39 66.9 °F 33.6 °F 29.82 in NW 10.4 mph 3.5 mph 29% 0.00 in 503.00 W/m2
16:44 67.0 °F 31.9 °F 29.82 in WNW 11.5 mph 5.9 mph 27% 0.00 in 485.00 W/m2
16:49 66.8 °F 32.6 °F 29.82 in NW 11.5 mph 8.6 mph 28% 0.00 in 471.00 W/m2
16:54 66.5 °F 33.2 °F 29.82 in WNW 11.5 mph 7.8 mph 29% 0.00 in 452.00 W/m2
16:59 66.4 °F 31.4 °F 29.82 in NNW 15.0 mph 6.0 mph 27% 0.00 in 338.00 W/m2
17:04 66.1 °F 32.0 °F 29.82 in NW 17.3 mph 8.7 mph 28% 0.00 in 278.00 W/m2
17:09 65.9 °F 31.8 °F 29.82 in WNW 11.0 mph 5.2 mph 28% 0.00 in 320.00 W/m2
17:14 65.8 °F 32.6 °F 29.82 in WNW 10.0 mph 5.8 mph 29% 0.00 in 302.00 W/m2
17:19 65.9 °F 31.8 °F 29.82 in WNW 12.7 mph 3.5 mph 28% 0.00 in 396.00 W/m2
17:24 65.9 °F 31.8 °F 29.82 in NW 10.4 mph 6.8 mph 28% 0.00 in 262.00 W/m2
17:30 65.8 °F 31.8 °F 29.82 in WSW 8.1 mph 5.5 mph 28% 0.00 in 304.00 W/m2
17:34 66.0 °F 32.8 °F 29.82 in WNW 5.8 mph 3.4 mph 29% 0.00 in 320.00 W/m2
17:40 66.1 °F 32.9 °F 29.82 in WNW 10.0 mph 6.6 mph 29% 0.00 in 325.00 W/m2
17:44 65.9 °F 33.6 °F 29.83 in NW 11.5 mph 6.7 mph 30% 0.00 in 209.00 W/m2
17:49 65.8 °F 32.6 °F 29.83 in WNW 9.2 mph 4.4 mph 29% 0.00 in 264.00 W/m2
17:55 65.8 °F 34.3 °F 29.83 in WNW 8.1 mph 3.3 mph 31% 0.00 in 257.00 W/m2
17:59 65.8 °F 33.5 °F 29.83 in NW 8.1 mph 4.7 mph 30% 0.00 in 253.00 W/m2
18:04 65.8 °F 33.5 °F 29.83 in NW 12.0 mph 8.8 mph 30% 0.00 in 236.00 W/m2
18:09 65.5 °F 33.2 °F 29.83 in NW 12.7 mph 7.2 mph 30% 0.00 in 209.00 W/m2
18:14 65.5 °F 33.2 °F 29.83 in NW 10.4 mph 7.0 mph 30% 0.00 in 186.00 W/m2
18:19 65.4 °F 33.1 °F 29.83 in NW 10.4 mph 6.8 mph 30% 0.00 in 163.00 W/m2
18:24 65.0 °F 33.6 °F 29.83 in WNW 7.0 mph 5.2 mph 31% 0.00 in 49.00 W/m2
18:29 64.6 °F 31.6 °F 29.83 in NNW 12.7 mph 7.6 mph 29% 0.00 in 47.00 W/m2
18:34 64.4 °F 32.3 °F 29.83 in NW 11.0 mph 6.6 mph 30% 0.00 in 44.00 W/m2
18:39 64.2 °F 32.1 °F 29.83 in West 10.4 mph 4.3 mph 30% 0.00 in 39.00 W/m2
18:44 64.0 °F 31.9 °F 29.83 in WNW 7.0 mph 3.8 mph 30% 0.00 in 33.00 W/m2
18:49 63.8 °F 32.6 °F 29.83 in NW 5.8 mph 4.3 mph 31% 0.00 in 30.00 W/m2
18:54 63.5 °F 32.3 °F 29.83 in NW 8.1 mph 5.0 mph 31% 0.00 in 21.00 W/m2
18:59 63.2 °F 32.8 °F 29.83 in NW 5.8 mph 4.5 mph 32% 0.00 in 14.00 W/m2
19:05 62.9 °F 33.3 °F 29.83 in NW 7.0 mph 3.5 mph 33% 0.00 in 11.00 W/m2
19:09 62.5 °F 33.0 °F 29.83 in NW 4.6 mph 4.4 mph 33% 0.00 in 9.00 W/m2
19:14 62.1 °F 34.1 °F 29.83 in NW 4.6 mph 2.3 mph 35% 0.00 in 7.00 W/m2
19:19 61.8 °F 33.8 °F 29.83 in NW 3.5 mph 2.1 mph 35% 0.00 in 0.00 W/m2
19:24 61.5 °F 34.3 °F 29.83 in WNW 2.3 mph 1.2 mph 36% 0.00 in 0.00 W/m2
19:29 61.3 °F 34.8 °F 29.83 in West 4.0 mph 0.9 mph 37% 0.00 in 0.00 W/m2
19:34 61.0 °F 34.5 °F 29.83 in NW 3.5 mph 2.1 mph 37% 0.00 in 0.00 W/m2
19:39 60.8 °F 35.0 °F 29.83 in NNW 5.0 mph 2.3 mph 38% 0.00 in 0.00 W/m2
19:44 60.6 °F 34.2 °F 29.83 in NW 3.5 mph 1.0 mph 37% 0.00 in 0.00 W/m2
19:49 60.4 °F 34.7 °F 29.83 in WNW 1.2 mph 1.1 mph 38% 0.00 in 0.00 W/m2
19:54 60.3 °F 34.6 °F 29.83 in WNW 4.6 mph 0.7 mph 38% 0.00 in 0.00 W/m2
19:59 60.2 °F 35.1 °F 29.84 in NW 3.5 mph 1.5 mph 39% 0.00 in 0.00 W/m2
20:04 60.2 °F 35.1 °F 29.83 in WNW 2.3 mph 0.4 mph 39% 0.00 in 0.00 W/m2
20:09 60.1 °F 35.7 °F 29.83 in Calm     40% 0.00 in 0.00 W/m2
20:14 60.1 °F 35.7 °F 29.84 in WNW 2.3 mph 0.9 mph 40% 0.00 in 0.00 W/m2
20:19 60.0 °F 35.0 °F 29.84 in NW 3.5 mph 0.9 mph 39% 0.00 in 0.00 W/m2
20:24 59.9 °F 34.2 °F 29.84 in NW 3.5 mph 1.3 mph 38% 0.00 in 0.00 W/m2
20:29 59.8 °F 34.1 °F 29.84 in NW 2.3 mph 1.2 mph 38% 0.00 in 0.00 W/m2
20:34 59.7 °F 34.7 °F 29.84 in NNW 3.0 mph 1.1 mph 39% 0.00 in 0.00 W/m2
20:39 59.6 °F 34.6 °F 29.84 in NW 3.5 mph 1.5 mph 39% 0.00 in 0.00 W/m2
20:44 59.5 °F 34.5 °F 29.84 in NW 3.5 mph 0.5 mph 39% 0.00 in 0.00 W/m2
20:49 59.3 °F 33.7 °F 29.84 in NW 3.5 mph 1.3 mph 38% 0.00 in 0.00 W/m2
20:54 59.1 °F 34.1 °F 29.84 in NW 2.3 mph 0.3 mph 39% 0.00 in 0.00 W/m2
21:00 58.9 °F 34.0 °F 29.84 in WNW 3.5 mph 1.2 mph 39% 0.00 in 0.00 W/m2
21:04 58.7 °F 33.8 °F 29.84 in WNW 2.3 mph 0.8 mph 39% 0.00 in 0.00 W/m2
21:09 58.5 °F 34.2 °F 29.84 in NW 2.3 mph 1.6 mph 40% 0.00 in 0.00 W/m2
21:14 58.4 °F 34.2 °F 29.85 in NW 2.3 mph 0.3 mph 40% 0.00 in 0.00 W/m2
21:19 58.3 °F 34.1 °F 29.85 in NW 1.2 mph 0.9 mph 40% 0.00 in 0.00 W/m2
21:24 58.3 °F 34.1 °F 29.85 in WNW 2.3 mph 0.2 mph 40% 0.00 in 0.00 W/m2
21:29 58.3 °F 34.1 °F 29.85 in WNW 2.3 mph 0.8 mph 40% 0.00 in 0.00 W/m2
21:34 58.4 °F 34.8 °F 29.85 in West 3.0 mph 1.6 mph 41% 0.00 in 0.00 W/m2
21:39 58.4 °F 34.2 °F 29.86 in WNW 5.8 mph 1.8 mph 40% 0.00 in 0.00 W/m2
21:44 58.5 °F 34.2 °F 29.86 in NW 4.6 mph 2.0 mph 40% 0.00 in 0.00 W/m2
21:49 58.5 °F 34.2 °F 29.86 in NW 4.6 mph 2.0 mph 40% 0.00 in 0.00 W/m2
21:54 58.4 °F 34.2 °F 29.86 in NW 5.8 mph 3.3 mph 40% 0.00 in 0.00 W/m2
21:59 58.3 °F 34.7 °F 29.86 in WNW 4.6 mph 2.4 mph 41% 0.00 in 0.00 W/m2
22:05 58.2 °F 34.6 °F 29.86 in NW 3.5 mph 3.3 mph 41% 0.00 in 0.00 W/m2
22:09 58.1 °F 34.5 °F 29.86 in NW 4.6 mph 2.6 mph 41% 0.00 in 0.00 W/m2
22:14 58.1 °F 35.1 °F 29.86 in WNW 4.6 mph 2.0 mph 42% 0.00 in 0.00 W/m2
22:19 58.0 °F 35.0 °F 29.86 in NW 4.6 mph 2.6 mph 42% 0.00 in 0.00 W/m2
22:24 58.2 °F 35.2 °F 29.86 in NW 5.8 mph 3.5 mph 42% 0.00 in 0.00 W/m2
22:29 58.3 °F 35.3 °F 29.87 in WNW 4.6 mph 2.6 mph 42% 0.00 in 0.00 W/m2
22:34 58.2 °F 35.2 °F 29.87 in WNW 5.8 mph 4.1 mph 42% 0.00 in 0.00 W/m2
22:39 58.2 °F 35.8 °F 29.86 in WNW 6.9 mph 2.2 mph 43% 0.00 in 0.00 W/m2
22:44 58.1 °F 35.7 °F 29.87 in WNW 5.8 mph 3.1 mph 43% 0.00 in 0.00 W/m2
22:49 57.9 °F 36.1 °F 29.86 in West 3.5 mph 2.8 mph 44% 0.00 in 0.00 W/m2
22:54 57.7 °F 36.5 °F 29.87 in NNW 5.8 mph 3.3 mph 45% 0.00 in 0.00 W/m2
22:59 55.0 °F 37.2 °F 29.90 in NNE 21.9 mph 15.8 mph 51% 0.00 in 0.00 W/m2
23:04 50.3 °F 37.4 °F 29.90 in NNE 19.6 mph 16.6 mph 61% 0.00 in 0.00 W/m2
23:09 47.8 °F 37.0 °F 29.90 in NNE 23.0 mph 16.3 mph 66% 0.00 in 0.00 W/m2
23:14 46.6 °F 37.0 °F 29.91 in NNE 17.0 mph 11.5 mph 69% 0.00 in 0.00 W/m2
23:19 45.8 °F 36.9 °F 29.91 in NNE 19.6 mph 13.2 mph 71% 0.00 in 0.00 W/m2
23:24 45.2 °F 37.1 °F 29.92 in NNE 21.0 mph 12.7 mph 73% 0.00 in 0.00 W/m2
23:29 44.8 °F 37.0 °F 29.92 in NNE 14.0 mph 10.8 mph 74% 0.00 in 0.00 W/m2
23:34 44.4 °F 36.6 °F 29.92 in NNE 21.9 mph 15.3 mph 74% 0.00 in 0.00 W/m2
23:39 44.0 °F 35.9 °F 29.92 in NNE 21.9 mph 16.2 mph 73% 0.00 in 0.00 W/m2
23:45 43.6 °F 35.9 °F 29.92 in NE 18.4 mph 12.7 mph 74% 0.00 in 0.00 W/m2
23:49 43.3 °F 35.9 °F 29.92 in NNE 20.0 mph 14.6 mph 75% 0.00 in 0.00 W/m2
23:54 43.0 °F 35.3 °F 29.93 in NNE 23.0 mph 16.8 mph 74% 0.00 in 0.00 W/m2
23:59 42.8 °F 35.1 °F 29.93 in NNE 19.6 mph 13.3 mph 74% 0.00 in 0.00 W/m2
Bourbonnais, Illinois, USA
Compliments of Weather Underground - 4 mb